Tracking 26492 objects as of 8-Dec-2022
HD Live streaming from Space Station
objects crossing your sky now

SL-23 DEB

Track SL-23 DEB now!


NORAD ID: 35577
Int'l Code: 2009-009C
Perigee: 1,140.6 km
Apogee: 36,030.4 km
Inclination: 34.9 °
Period: 653.9 minutes
Semi major axis: 24956 km
RCS: 0.1999 m2 (medium)
Launch date: February 26, 2009
Source: Commonwealth of Independent States (former USSR) (CIS)
Launch site: TYURATAM MISSILE AND SPACE COMPLEX (TTMTR)

Note: This is SATELLITE DEBRIS
aabbcc
Your satellite tracking list
Your tracking list is empty




NASA's NSSDC Master Catalog

Two Line Element Set (TLE):
1 35577U 09009C   22340.81253705 -.00000065  00000-0  00000+0 0  9998
2 35577  34.9404 243.2820 6990116  33.4025   2.4984  2.20205199109448
Source of the keplerian elements: AFSPC